Weather History for Port Hedland, WE

Change the Weather History Date:

Saturday, February 22, 2014

  Actual Average Record
Temperature  
Mean Temperature 87 °F -  
Max Temperature 100 °F 98 °F 107 °F (2007)
Min Temperature 74 °F 77 °F 73 °F (2002)
Cooling Degree Days 22    
Growing Degree Days 37 (Base 50)    
Moisture  
Dew Point 66 °F    
Average Humidity 54    
Maximum Humidity 89    
Minimum Humidity 10    
Precipitation  
Precipitation 0.00 in 0.08 in - ()
Sea Level Pressure  
Sea Level Pressure 29.83 in    
Wind  
Wind Speed 8 mph ()    
Max Wind Speed 21 mph    
Max Gust Speed -    
Visibility 6.2 miles    
Events      
Averages and records for this station are not official NWS values.
T = Trace of Precipitation, MM = Missing Value Source: Averaged Metar Reports

Daily Weather History Graph

Daily Weather History Graph

Search for Another Location

Airport:

Trip Planner

Search our weather history database for the weather conditions in past years. The results will help you decide how hot, cold, wet, or windy it might be!

Date:

Astronomy

Feb. 22, 2014 Rise Set
Actual Time 5:59 AM AWST 6:37 PM AWST
Civil Twilight 5:37 AM AWST 7:00 PM AWST
Nautical Twilight 5:10 AM AWST 7:26 PM AWST
Astronomical Twilight 4:44 AM AWST 7:53 PM AWST
Moon 11:34 PM AWST (2/22) 12:02 PM AWST (2/22)
Length of Visible Light 13h 23m
Length of Day
12h 37m
Waning Gibbous, 56% of the Moon is Illuminated
Feb 22
Waning Gibbous
Feb 23
Last Quarter
Mar 1
New
Mar 8
First Quarter
Mar 17
Full

Hourly Weather History & Observations

Time (AWST) Temp. Heat Index Dew Point Humidity Pressure Visibility Wind Dir Wind Speed Gust Speed Precip Events Conditions
12:00 AM 80 °F - 72 °F 70% 29.84 in - South 5.8 mph - -  
12:00 AM 80.6 °F 84.6 °F 71.6 °F 74% 29.83 in 6.2 mi South 5.8 mph - N/A   Unknown
12:30 AM 80.6 °F 84.6 °F 71.6 °F 74% 29.83 in 6.2 mi South 5.8 mph - N/A   Unknown
1:00 AM 80.6 °F 84.6 °F 71.6 °F 74% 29.83 in 6.2 mi SSE 3.5 mph - N/A   Unknown
1:30 AM 80.6 °F 84.6 °F 71.6 °F 74% 29.83 in 6.2 mi South 5.8 mph - N/A   Unknown
2:00 AM 79 °F - 71 °F 70% 29.83 in - South 5.8 mph - -  
2:00 AM 78.8 °F - 71.6 °F 78% 29.83 in 6.2 mi South 5.8 mph - N/A   Unknown
2:30 AM 78.8 °F - 71.6 °F 78% 29.83 in 6.2 mi SSE 4.6 mph - N/A   Unknown
3:00 AM 78 °F - 72 °F 75% 29.83 in - SE 3.5 mph - -  
3:00 AM 77.0 °F - 71.6 °F 83% 29.83 in 6.2 mi SE 3.5 mph - N/A   Unknown
3:30 AM 77.0 °F - 71.6 °F 83% 29.83 in 6.2 mi SSE 2.3 mph - N/A   Unknown
4:00 AM 77.0 °F - 71.6 °F 83% 29.83 in 6.2 mi Calm Calm - N/A   Unknown
4:30 AM 75.2 °F - 71.6 °F 89% 29.83 in 6.2 mi WSW 5.8 mph - N/A   Unknown
5:00 AM 75 °F - 71 °F 83% 29.84 in - Calm Calm - -  
5:00 AM 75.2 °F - 71.6 °F 89% 29.83 in 6.2 mi Calm Calm - N/A   Unknown
5:30 AM 75.2 °F - 69.8 °F 83% 29.83 in 6.2 mi WSW 5.8 mph - N/A   Unknown
6:00 AM 75 °F - 69 °F 78% 29.85 in - WSW 3.5 mph - -  
6:00 AM 75.2 °F - 69.8 °F 83% 29.83 in 6.2 mi WSW 3.5 mph - N/A   Unknown
6:30 AM 77.0 °F - 69.8 °F 78% 29.86 in 6.2 mi South 5.8 mph - N/A   Unknown
7:00 AM 78.8 °F - 69.8 °F 74% 29.86 in 6.2 mi South 5.8 mph - N/A   Unknown
7:30 AM 86.0 °F 87.3 °F 64.4 °F 48% 29.86 in 6.2 mi SE 8.1 mph - N/A   Unknown
8:00 AM 89 °F - 53 °F 19% 29.87 in - SE 12.7 mph - -  
8:00 AM 89.6 °F 87.3 °F 53.6 °F 29% 29.86 in 6.2 mi SE 12.7 mph - N/A   Unknown
8:30 AM 91.4 °F - 48.2 °F 23% 29.86 in 6.2 mi ESE 15.0 mph - N/A   Unknown
9:00 AM 93 °F - 47 °F 12% 29.88 in - ESE 16.1 mph - -  
9:00 AM 93.2 °F - 46.4 °F 20% 29.86 in 6.2 mi ESE 16.1 mph - N/A   Unknown
9:30 AM 95.0 °F - 46.4 °F 19% 29.86 in 6.2 mi ESE 17.3 mph - N/A   Unknown
10:00 AM 96.8 °F - 48.2 °F 19% 29.86 in 6.2 mi East 18.4 mph - N/A   Unknown
10:30 AM 98.6 °F - 48.2 °F 18% 29.86 in 6.2 mi East 19.6 mph - N/A   Unknown
11:00 AM 99 °F - 48 °F 10% 29.86 in - East 19.6 mph - -  
11:00 AM 98.6 °F - 48.2 °F 18% 29.86 in 6.2 mi East 19.6 mph - N/A   Unknown
11:30 AM 98.6 °F - 50.0 °F 19% 29.83 in 6.2 mi NE 19.6 mph - N/A   Unknown
12:00 PM 99 °F - 52 °F 13% 29.84 in - NE 18.4 mph - -  
12:00 PM 98.6 °F - 51.8 °F 21% 29.83 in 6.2 mi NE 18.4 mph - N/A   Unknown
12:30 PM 98.6 °F 97.6 °F 57.2 °F 25% 29.83 in 6.2 mi NNE 18.4 mph - N/A   Unknown
1:00 PM 98.6 °F 98.5 °F 59.0 °F 27% 29.80 in 6.2 mi NNE 17.3 mph - N/A   Unknown
1:30 PM 98.6 °F 100.0 °F 62.6 °F 30% 29.80 in 6.2 mi NNE 20.7 mph - N/A   Unknown
2:00 PM 95 °F - 70 °F 34% 29.80 in - NNE 20.7 mph - -  
2:00 PM 95.0 °F 101.3 °F 69.8 °F 44% 29.80 in 6.2 mi NNE 20.7 mph - N/A   Unknown
2:30 PM 95.0 °F 99.5 °F 68.0 °F 41% 29.80 in 6.2 mi NNE 19.6 mph - N/A   Unknown
3:00 PM 96 °F - 68 °F 31% 29.79 in - NNE 20.7 mph - -  
3:00 PM 95.0 °F 99.5 °F 68.0 °F 41% 29.77 in 6.2 mi NNE 20.7 mph - N/A   Unknown
3:30 PM 95.0 °F 98.5 °F 66.2 °F 39% 29.77 in 6.2 mi NNE 19.6 mph - N/A   Unknown
4:00 PM 95.0 °F 97.0 °F 64.4 °F 36% 29.77 in 6.2 mi NNE 17.3 mph - N/A   Unknown
4:30 PM 93.2 °F 97.7 °F 68.0 °F 44% 29.77 in 6.2 mi NNE 17.3 mph - N/A   Unknown
5:00 PM 92 °F - 69 °F 38% 29.78 in - NNE 17.3 mph - -  
5:00 PM 91.4 °F 96.8 °F 69.8 °F 49% 29.77 in 6.2 mi NNE 17.3 mph - N/A   Unknown
5:30 PM 91.4 °F 96.8 °F 69.8 °F 49% 29.77 in 6.2 mi NNE 17.3 mph - N/A   Unknown
6:00 PM 89 °F - 70 °F 44% 29.79 in - North 13.8 mph - -  
6:00 PM 89.6 °F 94.7 °F 69.8 °F 52% 29.77 in 6.2 mi North 13.8 mph - N/A   Unknown
6:30 PM 87.8 °F 93.8 °F 71.6 °F 58% 29.80 in 6.2 mi North 10.4 mph - N/A   Unknown
7:00 PM 87.8 °F 93.8 °F 71.6 °F 58% 29.80 in 6.2 mi NNE 10.4 mph - N/A   Unknown
7:30 PM 87.8 °F 93.8 °F 71.6 °F 58% 29.80 in 6.2 mi North 8.1 mph - N/A   Unknown
8:00 PM 85 °F - 73 °F 59% 29.83 in - North 8.1 mph - -  
8:00 PM 86.0 °F 93.4 °F 73.4 °F 66% 29.83 in 6.2 mi North 8.1 mph - N/A   Unknown
8:30 PM 84.2 °F 90.9 °F 73.4 °F 70% 29.83 in 6.2 mi North 6.9 mph - N/A   Unknown
9:00 PM 84 °F - 73 °F 61% 29.85 in - North 6.9 mph - -  
9:00 PM 84.2 °F 90.9 °F 73.4 °F 70% 29.83 in 6.2 mi North 6.9 mph - N/A   Unknown
9:30 PM 82.4 °F 88.2 °F 73.4 °F 74% 29.86 in 6.2 mi Calm Calm - N/A   Unknown
10:00 PM 82.4 °F 88.2 °F 73.4 °F 74% 29.86 in 6.2 mi Calm Calm - N/A   Unknown
10:30 PM 80.6 °F 85.4 °F 73.4 °F 79% 29.86 in 6.2 mi SSE 3.5 mph - N/A   Unknown
11:00 PM 79 °F - 73 °F 78% 29.87 in - South 2.3 mph - -  
11:00 PM 78.8 °F - 73.4 °F 83% 29.86 in 6.2 mi South 2.3 mph - N/A   Unknown
11:30 PM 78.8 °F - 73.4 °F 83% 29.86 in 6.2 mi SSE 2.3 mph - N/A   Unknown